星链-36968(STARLINK-36968)

导读

STARLINK-36968(NORAD编号67995)是SpaceX星链(Starlink)星座的第二代低轨互联网通信卫星,属于星链全球卫星互联网组网的组成部分。它部署在近地轨道,配备相控阵天线与激光星间链路,可提供低延迟宽带互联网接入服务,支持Ku/Ka频段通信。在SpaceX 2026年降低四千颗星链卫星轨道高度的计划中,该星大概率会从550公里降至480公里,以此降低太空碰撞风险,减少空间碎片隐患,服务全球偏远地区、移动场景的互联网接入需求。

Basic Information
目录编号:
67995
目录名称:
STARLINK-36968
国际标识:
2026-039K
轨道中心:
EARTH
卫星名称:
星链-36968
卫星全名:
星链-36968(STARLINK-36968)
卫星状态:
在轨 (已飞行189 天)
发射日期:
2026-02-27 UTC
国别 :
美国 (US)
星等 :
--
Orbit Information
数据来源 国际轨道数据
星历时间: 2026-09-03T16:00:02+0800
1天前
查看轨道信息
半长轴: 6861.132km
偏心率: 0.0001653
轨道倾角: 43.002°
近地点辐角 272.996°
升交点赤经 125.471°
平近点角 118.420°
近地点: 481.86km
远地点: 484.13km
周期: 94.266分钟
每日圈数: 15.275983
Detailed Information
固有亮度:
5
最大亮度:
2.5
卫星平台:
Starlink V1.0
覆盖范围:
全球
运营商:
太空探索技术公司
运营商所在国:
美国
制造商(研发单位):
太空探索技术公司
制造商所在国:
美国
使用方式:
暂无
Satellite Introduction
Starlink 计划是 SpaceX 推出的全球卫星互联网项目,通过发射低轨道卫星,为全球尤其是偏远地区提供高速、低延迟的互联网服务。自 2019 年起,Starlink 已部署数千颗卫星,旨在缩小全球数字鸿沟,推动互联网普及。该项目还为军事、航空等行业提供通信支持,带来广泛经济效益。
2D Orbit Map
3D Orbit Map
Orbit Altitude Analysis Chart
Orbit Inclination Analysis Chart
Orbit Comprehensive Analysis Chart
View Comprehensive Chart
Conjunction Data List
Event ID Objects TCA Miss Dist (km) Collision Risk Probability Collision Risk Index (CRI) Action
CDM_260904-152206-643706-799521
2026-09-04T
15:22:52+0000
0.454 km
远距离
1.980197E-4 高风险 0.81
CDM_260829-190505-836306-799522
2026-08-29T
19:05:33+0000
0.466 km
远距离
1.289286E-4 高风险 0.77
CDM_260906-111805-841006-799521
2026-09-06T
11:18:09+0000
0.728 km
远距离
5.778592E-5 中风险 0.7
CDM_260904-082406-751106-799521
2026-09-04T
08:24:51+0000
0.893 km
远距离
2.49372E-5 中风险 0.63
CDM_260905-050905-613206-799521
2026-09-05T
05:09:21+0000
0.990 km
远距离
1.796171E-5 中风险 0.6
CDM_260903-234606-751106-799521
2026-09-03T
23:46:59+0000
0.990 km
远距离
1.758069E-5 中风险 0.6
CDM_260906-133805-935906-799521
2026-09-06T
13:38:16+0000
1.052 km
极远距离
1.726243E-5 中风险 0.6
CDM_260905-000006-643706-799521
2026-09-05T
00:00:44+0000
1.155 km
极远距离
1.209627E-5 中风险 0.57
CDM_260906-024905-797606-799521
2026-09-06T
02:49:44+0000
1.101 km
极远距离
1.052398E-5 中风险 0.55
CDM_260905-033505-613206-799521
2026-09-05T
03:35:12+0000
1.260 km
极远距离
7.789049E-6 低风险 0.53